Regional Weather Roundup
Issued by NWS

Home | Current Version | Previous Version | Text Only | Print | Product List | Glossary On
Versions: 1 2 3 4 5 6 7 8 9 10 11 12 13 14 15 16 17 18 19 20 21 22 23 24 25 26 27 28 29 30 31 32 33 34 35 36 37 38 39 40 41 42 43 44 45 46 47 48 49 50
910
ASUS43 KBIS 230231
RWRND
NORTH DAKOTA REGIONAL WEATHER ROUNDUP
NATIONAL WEATHER SERVICE EASTERN NORTH DAKOTA/GRAND FORKS ND
800 PM CST FRI NOV 22 2019

  NOTE: "FAIR" INDICATES FEW OR NO CLOUDS BELOW 12,000 FEET WITH NO
  SIGNIFICANT WEATHER AND/OR OBSTRUCTIONS TO VISIBILITY.

NDZ001>003-009>011-017-230300-
...NORTHWEST NORTH DAKOTA...

CITY           SKY/WX    TMP DP  RH WIND       PRES   REMARKS
WILLISTON      NOT AVBL
MINOT          FAIR      39  26  59 SW16G26   29.64F WCI  30
MINOT AFB      NOT AVBL
$$

NDZ018>021-031>035-040>046-230300-
...SOUTHWEST NORTH DAKOTA...

CITY           SKY/WX    TMP DP  RH WIND       PRES   REMARKS
BISMARCK       FAIR      36  24  62 SW14      29.74F WCI  27
DICKINSON      FAIR      38  22  52 W17       29.73F WCI  28
GARRISON         N/A     33  25  72 W10       29.69F WCI  25
HETTINGER      FAIR      35  22  58 W10       29.81F WCI  27
$$

NDZ004>008-012>016-024-026-027-054-230300-
...NORTHEAST NORTH DAKOTA...

CITY           SKY/WX    TMP DP  RH WIND       PRES   REMARKS
GRAND FORKS    FAIR      31  24  75 S14       29.69F WCI  21
GRAND FORKS AF CLEAR     31  26  79 SW10      29.68F WCI  23
DEVILS LAKE    FAIR      31  25  78 SW15      29.65F WCI  20
$$

NDZ022-023-025-028>030-036>039-047>053-230300-
...SOUTHEAST NORTH DAKOTA...

CITY           SKY/WX    TMP DP  RH WIND       PRES   REMARKS
JAMESTOWN      FAIR      34  27  75 SW12      29.71F WCI  25
FARGO          FAIR      33  22  63 S18G29    29.77F WCI  22
WAHPETON       FAIR      30  23  74 S15       29.82F WCI  19
$$




USA.gov is the U.S. government's official web portal to all federal, state and local government web resources and services.